| time (UTC) | temp F | wind direction | speed knots | gust knots | rain 1hr in | rain 24hr in | rain mn in | humidity % | barometer mb |
| 20260831053346 | 69 | 122 | 0.9 | 0.9 | 0.00 | 0.00 | 0.00 | 96 | 1021.2 |
| 20260831052841 | 69 | 122 | 0.0 | 0.9 | 0.00 | 0.00 | 0.00 | 96 | 1021.1 |
| 20260831052340 | 69 | 78 | 0.9 | 2.6 | 0.00 | 0.00 | 0.00 | 96 | 1021.2 |
| 20260831051839 | 69 | 55 | 0.0 | 0.0 | 0.00 | 0.00 | 0.00 | 96 | 1021.3 |
| 20260831051337 | 69 | 55 | 0.0 | 0.0 | 0.00 | 0.00 | 0.00 | 95 | 1021.2 |
| 20260831050832 | 69 | 55 | 0.0 | 0.9 | 0.00 | 0.00 | 0.00 | 95 | 1021.2 |
| 20260831050332 | 69 | 70 | 2.6 | 2.6 | 0.00 | 0.00 | 0.00 | 95 | 1021.2 |
| 20260831045826 | 69 | 20 | 0.0 | 0.9 | 0.00 | 0.00 | 0.00 | 95 | 1021.3 |
| 20260831045320 | 70 | 20 | 1.7 | 2.6 | 0.00 | 0.00 | 0.00 | 95 | 1021.3 |
| 20260831044815 | 70 | 56 | 1.7 | 0.9 | 0.00 | 0.00 | 0.00 | 94 | 1021.2 |
| 20260831044310 | 70 | 131 | 0.0 | 0.9 | 0.00 | 0.00 | 0.00 | 94 | 1021.1 |
| 20260831043807 | 70 | 52 | 0.9 | 0.9 | 0.00 | 0.00 | 0.00 | 94 | 1021.2 |
| 20260831043306 | 70 | 49 | 1.7 | 2.6 | 0.00 | 0.00 | 0.00 | 95 | 1021.3 |
| 20260831042801 | 70 | 11 | 3.5 | 3.5 | 0.00 | 0.00 | 0.00 | 95 | 1021.0 |
| 20260831042300 | 70 | 349 | 2.6 | 3.5 | 0.00 | 0.00 | 0.00 | 95 | 1021.2 |
| 20260831041756 | 69 | 106 | 0.0 | 2.6 | 0.00 | 0.00 | 0.00 | 95 | 1021.0 |
| 20260831041255 | 69 | 133 | 2.6 | 3.5 | 0.00 | 0.00 | 0.00 | 95 | 1020.9 |
| 20260831040750 | 69 | 116 | 2.6 | 2.6 | 0.00 | 0.00 | 0.00 | 95 | 1021.0 |
| 20260831040249 | 69 | 112 | 0.9 | 0.9 | 0.00 | 0.00 | 0.00 | 95 | 1021.0 |
| 20260831035748 | 69 | 135 | 2.6 | 3.5 | 0.00 | 0.00 | 0.00 | 95 | 1021.2 |
| 20260831035247 | 69 | 127 | 0.0 | 0.0 | 0.00 | 0.00 | 0.00 | 94 | 1021.1 |
| 20260831034746 | 69 | 127 | 0.9 | 0.9 | 0.00 | 0.00 | 0.00 | 94 | 1021.4 |
| 20260831034242 | 69 | 127 | 0.0 | 0.0 | 0.00 | 0.00 | 0.00 | 94 | 1021.3 |
| 20260831033738 | 69 | 127 | 0.9 | 0.9 | 0.00 | 0.00 | 0.00 | 94 | 1021.4 |
| 20260831033237 | 69 | 127 | 0.9 | 0.9 | 0.00 | 0.00 | 0.00 | 94 | 1021.3 |
| 20260831032732 | 69 | 127 | 0.0 | 0.9 | 0.00 | 0.00 | 0.00 | 94 | 1021.5 |
| 20260831032227 | 69 | 127 | 0.0 | 0.9 | 0.00 | 0.00 | 0.00 | 94 | 1021.6 |
| 20260831031722 | 69 | 127 | 0.9 | 0.9 | 0.00 | 0.00 | 0.00 | 94 | 1021.4 |
| 20260831031217 | 69 | 125 | 0.9 | 0.9 | 0.00 | 0.00 | 0.00 | 93 | 1021.4 |
| 20260831030716 | 70 | 126 | 0.0 | 0.9 | 0.00 | 0.00 | 0.00 | 93 | 1021.5 |
| 20260831030214 | 70 | 112 | 0.0 | 0.9 | 0.00 | 0.00 | 0.00 | 93 | 1021.4 |
| 20260831025708 | 70 | 120 | 0.0 | 2.6 | 0.00 | 0.00 | 0.00 | 93 | 1021.5 |
| 20260831025203 | 70 | 119 | 0.9 | 0.9 | 0.00 | 0.00 | 0.00 | 92 | 1021.6 |
| 20260831024659 | 70 | 130 | 1.7 | 6.1 | 0.00 | 0.00 | 0.00 | 92 | 1021.7 |
| 20260831024157 | 70 | 124 | 0.9 | 3.5 | 0.00 | 0.00 | 0.00 | 92 | 1021.7 |
| 20260831023655 | 70 | 83 | 0.0 | 0.0 | 0.00 | 0.00 | 0.00 | 92 | 1021.9 |
| 20260831023149 | 70 | 83 | 0.0 | 0.0 | 0.00 | 0.00 | 0.00 | 92 | 1021.9 |
| 20260831022644 | 70 | 94 | 1.7 | 2.6 | 0.00 | 0.00 | 0.00 | 92 | 1021.9 |
| 20260831022134 | 70 | 110 | 0.9 | 2.6 | 0.00 | 0.00 | 0.00 | 92 | 1022.1 |
| 20260831021633 | 70 | 105 | 0.9 | 0.9 | 0.00 | 0.00 | 0.00 | 92 | 1021.8 |
| 20260831021128 | 70 | 100 | 0.0 | 0.0 | 0.00 | 0.00 | 0.00 | 93 | 1021.9 |
| 20260831020624 | 70 | 99 | 1.7 | 3.5 | 0.00 | 0.00 | 0.00 | 92 | 1021.9 |
| 20260831020119 | 71 | 112 | 1.7 | 0.9 | 0.00 | 0.00 | 0.00 | 92 | 1022.0 |
| 20260831015614 | 71 | 98 | 0.0 | 0.9 | 0.00 | 0.00 | 0.00 | 92 | 1022.2 |
| 20260831015108 | 71 | 56 | 0.9 | 2.6 | 0.00 | 0.00 | 0.00 | 91 | 1022.2 |
| 20260831014603 | 71 | 63 | 1.7 | 0.9 | 0.00 | 0.00 | 0.00 | 91 | 1022.2 |
| 20260831014059 | 71 | 68 | 1.7 | 3.5 | 0.00 | 0.00 | 0.00 | 91 | 1022.1 |
| 20260831013555 | 71 | 66 | 0.0 | 0.9 | 0.00 | 0.00 | 0.00 | 91 | 1022.2 |
| 20260831013054 | 71 | 68 | 0.0 | 0.9 | 0.00 | 0.00 | 0.00 | 92 | 1022.2 |
| 20260831012554 | 71 | 68 | 0.9 | 0.9 | 0.00 | 0.00 | 0.00 | 91 | 1022.2 |
| 20260831012049 | 71 | 62 | 0.0 | 0.0 | 0.00 | 0.00 | 0.00 | 92 | 1022.1 |
| 20260831011549 | 71 | 46 | 0.0 | 0.0 | 0.00 | 0.00 | 0.00 | 92 | 1022.1 |
| 20260831011044 | 71 | 47 | 0.9 | 0.9 | 0.00 | 0.00 | 0.00 | 91 | 1022.2 |
| 20260831010539 | 71 | 47 | 0.0 | 0.0 | 0.00 | 0.00 | 0.00 | 91 | 1022.2 |
| 20260831010036 | 71 | 46 | 0.0 | 0.0 | 0.00 | 0.00 | 0.00 | 91 | 1022.0 |
| 20260831005531 | 71 | 46 | 0.0 | 0.0 | 0.00 | 0.00 | 0.00 | 90 | 1022.1 |
| 20260831005030 | 72 | 46 | 0.0 | 0.9 | 0.00 | 0.00 | 0.00 | 90 | 1022.1 |
| 20260831004527 | 72 | 50 | 2.6 | 2.6 | 0.00 | 0.00 | 0.00 | 90 | 1022.0 |
| 20260831004022 | 72 | 22 | 0.0 | 2.6 | 0.00 | 0.00 | 0.00 | 90 | 1021.8 |
| 20260831003518 | 72 | 35 | 0.0 | 0.9 | 0.00 | 0.00 | 0.00 | 90 | 1021.8 |
| 20260831003014 | 72 | 53 | 0.0 | 2.6 | 0.00 | 0.00 | 0.00 | 90 | 1021.7 |
| 20260831002512 | 72 | 24 | 0.9 | 2.6 | 0.00 | 0.00 | 0.00 | 89 | 1021.7 |
| 20260831002008 | 72 | 58 | 3.5 | 4.3 | 0.00 | 0.00 | 0.00 | 89 | 1021.7 |
| 20260831001503 | 72 | 15 | 4.3 | 4.3 | 0.00 | 0.00 | 0.00 | 89 | 1021.4 |
| 20260831001000 | 73 | 8 | 2.6 | 2.6 | 0.00 | 0.00 | 0.00 | 89 | 1021.4 |
| 20260831000455 | 73 | 19 | 2.6 | 3.5 | 0.00 | 0.00 | 0.00 | 88 | 1021.1 |
| 20260830235953 | 73 | 27 | 1.7 | 3.5 | 0.00 | 0.00 | 0.00 | 88 | 1021.1 |
| 20260830235448 | 73 | 16 | 0.9 | 0.9 | 0.00 | 0.00 | 0.00 | 88 | 1021.0 |
| 20260830234944 | 73 | 38 | 0.9 | 2.6 | 0.00 | 0.00 | 0.00 | 87 | 1021.1 |
| 20260830234438 | 73 | 18 | 2.6 | 3.5 | 0.00 | 0.00 | 0.00 | 87 | 1020.8 |
| 20260830233934 | 74 | 26 | 1.7 | 3.5 | 0.00 | 0.00 | 0.00 | 85 | 1020.9 |
| 20260830233430 | 74 | 33 | 0.9 | 2.6 | 0.00 | 0.00 | 0.00 | 83 | 1020.6 |
| 20260830232925 | 74 | 28 | 1.7 | 2.6 | 0.00 | 0.00 | 0.00 | 81 | 1020.7 |
| 20260830232420 | 75 | 9 | 1.7 | 2.6 | 0.00 | 0.00 | 0.00 | 79 | 1020.5 |
| 20260830231917 | 74 | 28 | 0.0 | 0.0 | 0.00 | 0.00 | 0.00 | 80 | 1020.4 |
| 20260830231412 | 75 | 32 | 1.7 | 2.6 | 0.00 | 0.00 | 0.00 | 80 | 1020.5 |
| 20260830230911 | 75 | 1 | 0.9 | 0.9 | 0.00 | 0.00 | 0.00 | 78 | 1020.4 |
| 20260830230407 | 75 | 1 | 1.7 | 2.6 | 0.00 | 0.00 | 0.00 | 78 | 1020.3 |
| 20260830225906 | 75 | 5 | 3.5 | 3.5 | 0.00 | 0.00 | 0.00 | 78 | 1019.9 |
| 20260830225401 | 75 | 65 | 0.9 | 0.9 | 0.00 | 0.00 | 0.00 | 77 | 1019.8 |
| 20260830224856 | 75 | 120 | 1.7 | 2.6 | 0.00 | 0.00 | 0.00 | 78 | 1019.7 |
| 20260830224355 | 75 | 102 | 0.0 | 2.6 | 0.00 | 0.00 | 0.00 | 79 | 1019.5 |
| 20260830223852 | 75 | 127 | 3.5 | 4.3 | 0.00 | 0.00 | 0.00 | 78 | 1019.7 |
| 20260830223348 | 76 | 129 | 2.6 | 3.5 | 0.00 | 0.00 | 0.00 | 77 | 1019.8 |
| 20260830222847 | 76 | 106 | 0.0 | 0.9 | 0.00 | 0.00 | 0.00 | 79 | 1019.9 |
| 20260830222343 | 76 | 106 | 0.0 | 0.9 | 0.00 | 0.00 | 0.00 | 75 | 1020.1 |
| 20260830221838 | 76 | 106 | 0.9 | 0.9 | 0.00 | 0.00 | 0.00 | 75 | 1020.1 |
| 20260830221335 | 77 | 105 | 0.9 | 2.6 | 0.00 | 0.00 | 0.00 | 76 | 1020.1 |
| 20260830220830 | 77 | 98 | 1.7 | 0.9 | 0.00 | 0.00 | 0.00 | 72 | 1020.1 |
| 20260830220324 | 78 | 98 | 0.0 | 0.0 | 0.00 | 0.00 | 0.00 | 70 | 1020.3 |
| 20260830215822 | 78 | 98 | 0.0 | 0.0 | 0.00 | 0.00 | 0.00 | 71 | 1020.3 |
| 20260830215317 | 77 | 98 | 0.0 | 0.0 | 0.00 | 0.00 | 0.00 | 70 | 1020.2 |
| 20260830214812 | 78 | 98 | 0.9 | 0.9 | 0.00 | 0.00 | 0.00 | 73 | 1020.3 |
| 20260830214307 | 78 | 98 | 0.0 | 0.0 | 0.00 | 0.00 | 0.00 | 74 | 1020.5 |
| 20260830213806 | 78 | 98 | 0.0 | 0.0 | 0.00 | 0.00 | 0.00 | 74 | 1020.3 |
| 20260830213301 | 78 | 98 | 0.0 | 0.9 | 0.00 | 0.00 | 0.00 | 71 | 1020.3 |
| 20260830212757 | 78 | 98 | 0.0 | 0.0 | 0.00 | 0.00 | 0.00 | 74 | 1020.2 |
| 20260830212253 | 78 | 95 | 0.0 | 0.0 | 0.00 | 0.00 | 0.00 | 71 | 1020.3 |
| 20260830211752 | 78 | 95 | 0.0 | 0.0 | 0.00 | 0.00 | 0.00 | 72 | 1020.4 |
| 20260830211251 | 78 | 96 | 0.0 | 0.0 | 0.00 | 0.00 | 0.00 | 72 | 1020.5 |
| 20260830210748 | 78 | 95 | 0.0 | 0.0 | 0.00 | 0.00 | 0.00 | 73 | 1020.4 |
| 20260830210246 | 77 | 94 | 0.9 | 0.9 | 0.00 | 0.00 | 0.00 | 73 | 1020.3 |
| 20260830205744 | 77 | 125 | 1.7 | 2.6 | 0.00 | 0.00 | 0.00 | 73 | 1020.4 |
| 20260830205239 | 77 | 210 | 0.0 | 2.6 | 0.00 | 0.00 | 0.00 | 74 | 1020.5 |
| 20260830204734 | 77 | 143 | 1.7 | 2.6 | 0.00 | 0.00 | 0.00 | 74 | 1020.6 |
| 20260830204233 | 77 | 116 | 0.0 | 0.9 | 0.00 | 0.00 | 0.00 | 73 | 1020.7 |
| 20260830203729 | 77 | 115 | 0.9 | 0.9 | 0.00 | 0.00 | 0.00 | 73 | 1020.8 |
| 20260830203225 | 77 | 264 | 0.0 | 0.9 | 0.00 | 0.00 | 0.00 | 75 | 1020.6 |
| 20260830202724 | 77 | 244 | 1.7 | 2.6 | 0.00 | 0.00 | 0.00 | 75 | 1020.7 |
| 20260830202220 | 77 | 104 | 0.9 | 0.9 | 0.00 | 0.00 | 0.00 | 77 | 1020.7 |
| 20260830201719 | 77 | 104 | 1.7 | 2.6 | 0.00 | 0.00 | 0.00 | 76 | 1020.8 |
| 20260830201214 | 77 | 117 | 2.6 | 2.6 | 0.00 | 0.00 | 0.00 | 74 | 1020.8 |
| 20260830200710 | 77 | 122 | 0.9 | 0.9 | 0.00 | 0.00 | 0.00 | 75 | 1020.9 |
| 20260830200209 | 77 | 122 | 0.9 | 0.9 | 0.00 | 0.00 | 0.00 | 75 | 1021.2 |
| 20260830195704 | 77 | 105 | 0.9 | 2.6 | 0.00 | 0.00 | 0.00 | 74 | 1021.0 |
| 20260830195202 | 77 | 111 | 2.6 | 2.6 | 0.00 | 0.00 | 0.00 | 72 | 1021.2 |
| 20260830194701 | 78 | 112 | 0.9 | 2.6 | 0.00 | 0.00 | 0.00 | 72 | 1021.2 |
| 20260830194156 | 77 | 109 | 0.0 | 0.0 | 0.00 | 0.00 | 0.00 | 72 | 1021.3 |
| 20260830193650 | 77 | 77 | 0.0 | 0.9 | 0.00 | 0.00 | 0.00 | 72 | 1021.4 |
| 20260830193145 | 78 | 77 | 1.7 | 0.9 | 0.00 | 0.00 | 0.00 | 69 | 1021.3 |
| 20260830192640 | 78 | 339 | 0.0 | 0.0 | 0.00 | 0.00 | 0.00 | 68 | 1021.6 |
| 20260830192135 | 78 | 346 | 0.0 | 0.0 | 0.00 | 0.00 | 0.00 | 67 | 1021.7 |
| 20260830191631 | 78 | 351 | 0.0 | 0.0 | 0.00 | 0.00 | 0.00 | 69 | 1021.8 |
| 20260830191125 | 79 | 29 | 0.9 | 0.9 | 0.00 | 0.00 | 0.00 | 65 | 1021.9 |
| 20260830190621 | 78 | 29 | 0.0 | 0.9 | 0.00 | 0.00 | 0.00 | 66 | 1021.8 |
| 20260830190115 | 78 | 354 | 2.6 | 3.5 | 0.00 | 0.00 | 0.00 | 65 | 1021.9 |
| 20260830185609 | 78 | 58 | 0.9 | 0.9 | 0.00 | 0.00 | 0.00 | 66 | 1022.0 |
| 20260830185105 | 78 | 20 | 0.9 | 0.9 | 0.00 | 0.00 | 0.00 | 69 | 1022.2 |
| 20260830184603 | 78 | 11 | 0.0 | 3.5 | 0.00 | 0.00 | 0.00 | 66 | 1022.0 |
| 20260830184058 | 79 | 18 | 1.7 | 4.3 | 0.00 | 0.00 | 0.00 | 66 | 1022.1 |
| 20260830183552 | 78 | 1 | 0.0 | 0.9 | 0.00 | 0.00 | 0.00 | 69 | 1022.3 |
| 20260830183048 | 78 | 0 | 2.6 | 3.5 | 0.00 | 0.00 | 0.00 | 65 | 1022.2 |
| 20260830182538 | 79 | 8 | 3.5 | 4.3 | 0.00 | 0.00 | 0.00 | 64 | 1022.3 |
| 20260830182034 | 79 | 8 | 0.0 | 0.9 | 0.00 | 0.00 | 0.00 | 65 | 1022.3 |
| 20260830181530 | 78 | 356 | 1.7 | 2.6 | 0.00 | 0.00 | 0.00 | 68 | 1022.4 |
| 20260830181029 | 78 | 1 | 4.3 | 7.0 | 0.00 | 0.00 | 0.00 | 67 | 1022.4 |
| 20260830180524 | 77 | 347 | 1.7 | 0.9 | 0.00 | 0.00 | 0.00 | 69 | 1022.3 |
| 20260830180023 | 77 | 286 | 2.6 | 2.6 | 0.00 | 0.00 | 0.00 | 71 | 1022.4 |
| 20260830175522 | 77 | 357 | 3.5 | 3.5 | 0.00 | 0.00 | 0.00 | 68 | 1022.4 |
| 20260830175018 | 77 | 6 | 1.7 | 2.6 | 0.00 | 0.00 | 0.00 | 70 | 1022.5 |
| 20260830174513 | 77 | 1 | 4.3 | 4.3 | 0.00 | 0.00 | 0.00 | 68 | 1022.7 |
| 20260830174008 | 77 | 352 | 2.6 | 4.3 | 0.00 | 0.00 | 0.00 | 69 | 1022.6 |
| 20260830173503 | 77 | 295 | 1.7 | 2.6 | 0.00 | 0.00 | 0.00 | 69 | 1022.7 |
| 20260830172958 | 77 | 5 | 0.9 | 3.5 | 0.00 | 0.00 | 0.00 | 69 | 1022.8 |
| 20260830172455 | 77 | 223 | 0.0 | 2.6 | 0.00 | 0.00 | 0.00 | 71 | 1022.8 |
| 20260830171950 | 77 | 358 | 0.9 | 0.9 | 0.00 | 0.00 | 0.00 | 74 | 1022.8 |
| 20260830171445 | 76 | 4 | 0.0 | 0.9 | 0.00 | 0.00 | 0.00 | 75 | 1023.0 |
| 20260830170945 | 76 | 281 | 0.0 | 0.9 | 0.00 | 0.00 | 0.00 | 76 | 1023.0 |
| 20260830170440 | 75 | 296 | 0.0 | 0.0 | 0.00 | 0.00 | 0.00 | 78 | 1023.4 |
| 20260830165938 | 74 | 265 | 2.6 | 3.5 | 0.00 | 0.00 | 0.00 | 75 | 1023.1 |
| 20260830165435 | 75 | 267 | 1.7 | 2.6 | 0.00 | 0.00 | 0.00 | 77 | 1023.4 |
| 20260830164931 | 75 | 259 | 1.7 | 2.6 | 0.00 | 0.00 | 0.00 | 76 | 1023.4 |
| 20260830164426 | 75 | 6 | 0.9 | 0.9 | 0.00 | 0.00 | 0.00 | 78 | 1023.7 |
| 20260830163922 | 75 | 13 | 1.7 | 2.6 | 0.00 | 0.00 | 0.00 | 79 | 1023.4 |
| 20260830163419 | 75 | 8 | 0.0 | 0.9 | 0.00 | 0.00 | 0.00 | 79 | 1023.4 |
| 20260830162918 | 75 | 8 | 0.0 | 0.9 | 0.00 | 0.00 | 0.00 | 79 | 1023.4 |
| 20260830162414 | 75 | 12 | 0.9 | 2.6 | 0.00 | 0.00 | 0.00 | 79 | 1023.5 |
| 20260830161908 | 75 | 359 | 0.9 | 2.6 | 0.00 | 0.00 | 0.00 | 78 | 1023.4 |
| 20260830161408 | 76 | 17 | 0.0 | 0.0 | 0.00 | 0.00 | 0.00 | 80 | 1023.1 |
| 20260830160903 | 76 | 353 | 0.0 | 0.9 | 0.00 | 0.00 | 0.00 | 78 | 1023.3 |
| 20260830160359 | 75 | 351 | 0.0 | 0.0 | 0.00 | 0.00 | 0.00 | 75 | 1023.3 |
| 20260830155854 | 75 | 351 | 0.0 | 0.0 | 0.00 | 0.00 | 0.00 | 76 | 1023.1 |
| 20260830155350 | 76 | 17 | 0.0 | 0.9 | 0.00 | 0.00 | 0.00 | 74 | 1022.9 |
| 20260830154845 | 75 | 17 | 0.0 | 0.0 | 0.00 | 0.00 | 0.00 | 74 | 1022.9 |
| 20260830154341 | 75 | 17 | 0.0 | 0.0 | 0.00 | 0.00 | 0.00 | 75 | 1022.9 |
| 20260830153838 | 75 | 17 | 0.0 | 0.0 | 0.00 | 0.00 | 0.00 | 79 | 1022.9 |
| 20260830153333 | 75 | 17 | 0.0 | 0.0 | 0.00 | 0.00 | 0.00 | 79 | 1022.9 |
| 20260830152831 | 75 | 16 | 0.9 | 0.9 | 0.00 | 0.00 | 0.00 | 79 | 1023.0 |
| 20260830152326 | 75 | 16 | 0.0 | 0.0 | 0.00 | 0.00 | 0.00 | 77 | 1023.0 |
| 20260830151821 | 74 | 16 | 0.0 | 0.0 | 0.00 | 0.00 | 0.00 | 78 | 1023.1 |
| 20260830151320 | 75 | 358 | 0.9 | 0.9 | 0.00 | 0.00 | 0.00 | 76 | 1023.0 |
| 20260830150815 | 75 | 285 | 0.0 | 0.0 | 0.00 | 0.00 | 0.00 | 75 | 1023.0 |
| 20260830150314 | 74 | 285 | 0.0 | 0.9 | 0.00 | 0.00 | 0.00 | 76 | 1022.9 |
| 20260830145809 | 74 | 285 | 0.0 | 0.9 | 0.00 | 0.00 | 0.00 | 75 | 1022.8 |
| 20260830145306 | 74 | 284 | 0.9 | 0.9 | 0.00 | 0.00 | 0.00 | 74 | 1022.8 |
| 20260830144759 | 74 | 285 | 0.0 | 0.9 | 0.00 | 0.00 | 0.00 | 74 | 1022.7 |
| 20260830144255 | 74 | 285 | 0.0 | 0.0 | 0.00 | 0.00 | 0.00 | 75 | 1022.6 |
| 20260830143751 | 75 | 285 | 0.0 | 0.0 | 0.00 | 0.00 | 0.00 | 74 | 1022.6 |
| 20260830143250 | 74 | 285 | 0.0 | 0.0 | 0.00 | 0.00 | 0.00 | 75 | 1022.5 |
| 20260830142745 | 74 | 285 | 0.0 | 2.6 | 0.00 | 0.00 | 0.00 | 74 | 1022.5 |
| 20260830142240 | 74 | 285 | 0.9 | 0.9 | 0.00 | 0.00 | 0.00 | 74 | 1022.2 |
| 20260830141735 | 74 | 270 | 0.0 | 0.0 | 0.00 | 0.00 | 0.00 | 74 | 1022.3 |
| 20260830141230 | 74 | 270 | 0.0 | 0.9 | 0.00 | 0.00 | 0.00 | 73 | 1022.1 |
| 20260830140724 | 74 | 271 | 0.9 | 0.9 | 0.00 | 0.00 | 0.00 | 74 | 1021.9 |
| 20260830140220 | 74 | 260 | 0.9 | 0.9 | 0.00 | 0.00 | 0.00 | 72 | 1021.9 |
| 20260830135709 | 74 | 259 | 0.9 | 0.9 | 0.00 | 0.00 | 0.00 | 72 | 1021.7 |
| 20260830135204 | 74 | 287 | 1.7 | 6.1 | 0.00 | 0.00 | 0.00 | 71 | 1021.9 |
| 20260830134700 | 74 | 245 | 0.9 | 2.6 | 0.00 | 0.00 | 0.00 | 72 | 1022.0 |
| 20260830134155 | 74 | 272 | 0.9 | 0.9 | 0.00 | 0.00 | 0.00 | 72 | 1021.9 |
| 20260830133651 | 73 | 265 | 0.0 | 0.0 | 0.00 | 0.00 | 0.00 | 74 | 1021.8 |
| 20260830133146 | 73 | 265 | 0.0 | 0.0 | 0.00 | 0.00 | 0.00 | 75 | 1022.0 |
| 20260830132642 | 72 | 265 | 0.0 | 0.9 | 0.00 | 0.00 | 0.00 | 75 | 1021.8 |
| 20260830132137 | 72 | 265 | 0.0 | 0.0 | 0.00 | 0.00 | 0.00 | 76 | 1021.9 |
| 20260830131636 | 71 | 116 | 0.0 | 2.6 | 0.00 | 0.00 | 0.00 | 74 | 1021.9 |
| 20260830131136 | 71 | 221 | 0.9 | 2.6 | 0.00 | 0.00 | 0.00 | 74 | 1021.9 |
| 20260830130631 | 71 | 240 | 1.7 | 2.6 | 0.00 | 0.00 | 0.00 | 75 | 1021.8 |
| 20260830130126 | 71 | 138 | 0.9 | 0.9 | 0.00 | 0.00 | 0.00 | 78 | 1021.9 |
| 20260830125625 | 71 | 132 | 1.7 | 2.6 | 0.00 | 0.00 | 0.00 | 75 | 1022.0 |
| 20260830125120 | 71 | 259 | 0.0 | 0.9 | 0.00 | 0.00 | 0.00 | 76 | 1022.0 |
| 20260830124618 | 71 | 260 | 1.7 | 2.6 | 0.00 | 0.00 | 0.00 | 74 | 1022.2 |
| 20260830124114 | 71 | 126 | 1.7 | 2.6 | 0.00 | 0.00 | 0.00 | 76 | 1021.9 |
| 20260830123611 | 70 | 265 | 0.9 | 2.6 | 0.00 | 0.00 | 0.00 | 76 | 1022.1 |
| 20260830123106 | 70 | 228 | 0.9 | 0.9 | 0.00 | 0.00 | 0.00 | 76 | 1022.0 |
| 20260830122603 | 70 | 222 | 0.0 | 0.9 | 0.00 | 0.00 | 0.00 | 76 | 1021.9 |
| 20260830122059 | 70 | 262 | 0.9 | 3.5 | 0.00 | 0.00 | 0.00 | 76 | 1022.0 |
| 20260830121554 | 70 | 255 | 0.9 | 2.6 | 0.00 | 0.00 | 0.00 | 75 | 1022.0 |
| 20260830121054 | 70 | 118 | 0.0 | 0.9 | 0.00 | 0.00 | 0.00 | 79 | 1021.8 |
| 20260830120549 | 68 | 113 | 0.0 | 0.0 | 0.00 | 0.00 | 0.00 | 81 | 1022.0 |
| 20260830120046 | 67 | 113 | 0.0 | 0.0 | 0.00 | 0.00 | 0.00 | 81 | 1022.0 |
| 20260830115541 | 67 | 113 | 0.0 | 0.0 | 0.00 | 0.00 | 0.00 | 83 | 1021.9 |
| 20260830115036 | 66 | 262 | 0.0 | 0.9 | 0.00 | 0.00 | 0.00 | 86 | 1021.7 |
| 20260830114533 | 64 | 263 | 0.0 | 0.0 | 0.00 | 0.00 | 0.00 | 93 | 1021.9 |
| 20260830114032 | 64 | 263 | 0.0 | 0.0 | 0.00 | 0.00 | 0.00 | 94 | 1021.7 |
| 20260830113527 | 64 | 263 | 0.0 | 0.0 | 0.00 | 0.00 | 0.00 | 95 | 1021.9 |
| 20260830113023 | 63 | 263 | 0.0 | 0.0 | 0.00 | 0.00 | 0.00 | 95 | 1021.9 |
| 20260830112519 | 63 | 263 | 0.0 | 0.0 | 0.00 | 0.00 | 0.00 | 96 | 1021.9 |
| 20260830112015 | 63 | 263 | 0.0 | 0.0 | 0.00 | 0.00 | 0.00 | 95 | 1021.9 |
| 20260830111511 | 63 | 263 | 0.0 | 0.0 | 0.00 | 0.00 | 0.00 | 95 | 1021.7 |
| 20260830111007 | 63 | 263 | 0.0 | 0.0 | 0.00 | 0.00 | 0.00 | 95 | 1021.9 |
| 20260830110506 | 63 | 263 | 0.0 | 0.0 | 0.00 | 0.00 | 0.00 | 95 | 1021.8 |
| 20260830110001 | 63 | 263 | 0.0 | 0.0 | 0.00 | 0.00 | 0.00 | 95 | 1021.9 |
| 20260830105457 | 63 | 263 | 0.0 | 0.0 | 0.00 | 0.00 | 0.00 | 95 | 1021.8 |
| 20260830104953 | 63 | 263 | 0.0 | 0.0 | 0.00 | 0.00 | 0.00 | 95 | 1021.9 |
| 20260830104449 | 63 | 263 | 0.0 | 0.0 | 0.00 | 0.00 | 0.00 | 95 | 1021.7 |
| 20260830103944 | 63 | 263 | 0.9 | 0.9 | 0.00 | 0.00 | 0.00 | 95 | 1021.6 |
| 20260830103440 | 62 | 263 | 0.0 | 0.0 | 0.00 | 0.00 | 0.00 | 95 | 1021.9 |
| 20260830102937 | 62 | 263 | 0.0 | 0.0 | 0.00 | 0.00 | 0.00 | 95 | 1021.8 |
| 20260830102433 | 62 | 263 | 0.0 | 0.0 | 0.00 | 0.00 | 0.00 | 96 | 1021.7 |
| 20260830101929 | 63 | 263 | 0.0 | 0.0 | 0.00 | 0.00 | 0.00 | 96 | 1021.9 |
| 20260830101424 | 63 | 263 | 0.0 | 0.0 | 0.00 | 0.00 | 0.00 | 96 | 1022.0 |
| 20260830100924 | 63 | 263 | 0.0 | 0.0 | 0.00 | 0.00 | 0.00 | 96 | 1021.9 |
| 20260830100423 | 63 | 263 | 0.0 | 0.0 | 0.00 | 0.00 | 0.00 | 96 | 1021.9 |
| 20260830095922 | 63 | 263 | 0.0 | 0.0 | 0.00 | 0.00 | 0.00 | 96 | 1022.0 |
| 20260830095418 | 62 | 263 | 0.0 | 0.0 | 0.00 | 0.00 | 0.00 | 96 | 1022.0 |
| 20260830094914 | 62 | 263 | 0.0 | 0.0 | 0.00 | 0.00 | 0.00 | 97 | 1022.0 |
| 20260830094410 | 62 | 263 | 0.0 | 0.0 | 0.00 | 0.00 | 0.00 | 97 | 1022.0 |
| 20260830093906 | 62 | 263 | 0.0 | 0.0 | 0.00 | 0.00 | 0.00 | 97 | 1021.9 |
| 20260830093401 | 62 | 263 | 0.0 | 0.0 | 0.00 | 0.00 | 0.00 | 97 | 1022.0 |
| 20260830092856 | 62 | 263 | 0.0 | 0.0 | 0.00 | 0.00 | 0.00 | 97 | 1021.9 |
| 20260830092352 | 62 | 263 | 0.0 | 0.0 | 0.00 | 0.00 | 0.00 | 97 | 1021.7 |
| 20260830091848 | 62 | 263 | 1.7 | 0.9 | 0.00 | 0.00 | 0.00 | 97 | 1021.7 |
| 20260830091348 | 62 | 263 | 0.9 | 0.9 | 0.00 | 0.00 | 0.00 | 98 | 1021.7 |
| 20260830090847 | 62 | 263 | 0.0 | 0.0 | 0.00 | 0.00 | 0.00 | 98 | 1021.4 |
| 20260830090342 | 62 | 263 | 0.9 | 0.9 | 0.00 | 0.00 | 0.00 | 98 | 1021.7 |
| 20260830085842 | 62 | 263 | 0.0 | 0.0 | 0.00 | 0.00 | 0.00 | 98 | 1021.7 |
| 20260830085337 | 62 | 263 | 0.0 | 0.0 | 0.00 | 0.00 | 0.00 | 98 | 1021.9 |
| 20260830084833 | 62 | 263 | 0.0 | 0.0 | 0.00 | 0.00 | 0.00 | 98 | 1021.9 |
| 20260830084328 | 62 | 263 | 0.0 | 0.0 | 0.00 | 0.00 | 0.00 | 98 | 1021.9 |
| 20260830083823 | 62 | 263 | 0.0 | 0.0 | 0.00 | 0.00 | 0.00 | 98 | 1022.0 |
| 20260830083319 | 62 | 263 | 0.0 | 0.9 | 0.00 | 0.00 | 0.00 | 98 | 1021.9 |
| 20260830082819 | 62 | 263 | 0.0 | 0.0 | 0.00 | 0.00 | 0.00 | 98 | 1022.0 |
| 20260830082314 | 62 | 263 | 0.0 | 0.0 | 0.00 | 0.00 | 0.00 | 99 | 1022.1 |
| 20260830081809 | 62 | 263 | 0.0 | 0.0 | 0.00 | 0.00 | 0.00 | 99 | 1022.2 |
| 20260830081308 | 62 | 263 | 0.0 | 0.0 | 0.00 | 0.00 | 0.00 | 99 | 1022.2 |
| 20260830080803 | 62 | 263 | 0.0 | 0.0 | 0.00 | 0.00 | 0.00 | 99 | 1022.0 |
| 20260830080300 | 62 | 263 | 0.9 | 0.9 | 0.00 | 0.00 | 0.00 | 99 | 1022.2 |
| 20260830075759 | 61 | 263 | 0.0 | 0.0 | 0.00 | 0.00 | 0.00 | 99 | 1022.1 |
| 20260830075254 | 61 | 263 | 0.0 | 0.0 | 0.00 | 0.00 | 0.00 | 99 | 1021.9 |
| 20260830074749 | 61 | 263 | 0.0 | 0.0 | 0.00 | 0.00 | 0.00 | 99 | 1022.0 |
| 20260830074245 | 61 | 263 | 0.0 | 0.0 | 0.00 | 0.00 | 0.00 | 99 | 1022.2 |
| 20260830073741 | 61 | 263 | 0.0 | 0.0 | 0.00 | 0.00 | 0.00 | 99 | 1022.2 |
| 20260830073236 | 61 | 263 | 0.0 | 0.0 | 0.00 | 0.00 | 0.00 | 99 | 1022.1 |
| 20260830072731 | 61 | 263 | 0.0 | 0.0 | 0.00 | 0.00 | 0.00 | 99 | 1022.3 |
| 20260830072226 | 61 | 263 | 0.0 | 0.0 | 0.00 | 0.00 | 0.00 | 99 | 1022.1 |
| 20260830071721 | 61 | 263 | 0.0 | 0.0 | 0.00 | 0.00 | 0.00 | 99 | 1022.2 |
| 20260830071220 | 61 | 263 | 0.0 | 0.0 | 0.00 | 0.00 | 0.00 | 99 | 1022.3 |
| 20260830070714 | 61 | 263 | 0.0 | 0.0 | 0.00 | 0.00 | 0.00 | 99 | 1022.5 |
| 20260830070214 | 61 | 263 | 0.0 | 0.0 | 0.00 | 0.00 | 0.00 | 99 | 1022.4 |
| 20260830065713 | 61 | 263 | 0.0 | 0.0 | 0.00 | 0.00 | 0.00 | 99 | 1022.2 |
| 20260830065208 | 60 | 263 | 0.0 | 0.0 | 0.00 | 0.00 | 0.00 | 99 | 1022.1 |
| 20260830064706 | 60 | 263 | 0.0 | 0.0 | 0.00 | 0.00 | 0.00 | 98 | 1022.3 |
| 20260830064201 | 60 | 263 | 0.0 | 0.0 | 0.00 | 0.00 | 0.00 | 98 | 1022.3 |
| 20260830063656 | 60 | 263 | 0.0 | 0.0 | 0.00 | 0.00 | 0.00 | 98 | 1022.5 |
| 20260830063155 | 60 | 263 | 0.0 | 0.0 | 0.00 | 0.00 | 0.00 | 98 | 1022.6 |
| 20260830062650 | 60 | 263 | 0.0 | 0.0 | 0.00 | 0.00 | 0.00 | 98 | 1022.3 |
| 20260830062144 | 60 | 263 | 0.0 | 0.0 | 0.00 | 0.00 | 0.00 | 98 | 1022.5 |
| 20260830061639 | 60 | 263 | 0.0 | 0.0 | 0.00 | 0.00 | 0.00 | 98 | 1022.5 |
| 20260830061135 | 60 | 263 | 0.0 | 0.0 | 0.00 | 0.00 | 0.00 | 98 | 1022.5 |
| 20260830060632 | 60 | 263 | 0.0 | 0.0 | 0.00 | 0.00 | 0.00 | 98 | 1022.5 |
| 20260830060128 | 60 | 263 | 0.0 | 0.0 | 0.00 | 0.00 | 0.00 | 98 | 1022.6 |
| 20260830055622 | 60 | 263 | 0.0 | 0.0 | 0.00 | 0.00 | 0.00 | 98 | 1022.6 |
| 20260830055118 | 60 | 263 | 0.0 | 0.0 | 0.00 | 0.00 | 0.00 | 98 | 1022.6 |
| 20260830054613 | 60 | 263 | 0.0 | 0.0 | 0.00 | 0.00 | 0.00 | 98 | 1022.8 |
| 20260830054109 | 60 | 263 | 0.0 | 0.0 | 0.00 | 0.00 | 0.00 | 98 | 1022.6 |